COSMOS 1275 DEB, 13021

Orbit data source: Space-Track

COSMOS 1275 DEB, 13021 is space debris in LEO originally from a launch on Thu, 04 Jun 1981 UTC launched from the Plesetsk Missile And Space Complex (PKMTR). Debris objects in space refer to the collection of defunct objects orbiting the Earth. Examples of debris include non-operational satellites, rocket bodies, and fragments generated from explosions, collisions, or faulty payload assembly.

Loading next visibility...
Identifier
13021, 1981-053ET
Orbit
LEO
Country
Flag of CISCIS
Related business
Manufacturer
Unknown
Mission
Spacecraft
Bus & Motor
Unknown
Mass
Unknown
Launch date (UTC)
1981-06-04 (44 years ago)
Launch vehicle
Unknown
Launch site
Plesetsk Missile And Space Complex (PKMTR)
Object type
Payload
Rocket body
Debris
Shape & HBR
Unknown shape, 0.1 m
Radar Cross Section
Small (<0.1 m²)

Expand to show TLE details & history
Last TLE update: 14 hours ago

TLE from 14 hours ago
0 COSMOS 1275 DEB
1 13021U 81053ET  25304.45984566  .00001953  00000-0  11925-2 0  9993
2 13021  83.1413 101.7038 0021927 148.9105 265.4182 14.05411634227545
Epoch: 2025-10-31T11:02Z
TLE epoch observation values (Epoch: 2025-10-31T11:02:10.665Z)
Latitude
53.61491°
Longitude
-94.49968°
Altitude
885.224 km
Speed
7.414 km/s
True Right ascension
07h 24m 11s
True Declination
53° 27' 12"
Sunlit
Object was in daylight at epoch
Visualization orbit readout
Latitude
Unknown
Longitude
Unknown
Altitude
Unknown
Speed
Unknown
Apparent Right ascension
Unknown
Apparent Declination
Unknown
Sunlit
N/A
Visualization observer readout
Local Sidereal Time
20:38:31
Azimuth
Unknown
Elevation
Unknown
Doppler factor
Unknown
Orbital elements
Apogee altitude
888.113 km
Perigee altitude
856.317 km
Semi-major axis
7,250.352 km
Eccentricity
0.00219
Inclination
83.1413°
RAAN
101.7038°
Arg. of periapsis
148.9105°
True anomaly
265.16779°
Mean anomaly
265.4182°
Eccentric anomaly
265.29299°
Mean motion
3.51564 °/min
Orbital period
102.4 mins
BSTAR
0.0011925
Loading maneuver chart data...
Computing Atmospheric mass density...
Loading historical data...
Loading historical data...
Loading historical data...
Loading historical data...
Loading historical data...
Loading historical data...
Loading historical data...

Documentation

Showing up to 5 results
|